Zurück zum Katalog

STARLINK-32888

AktivKommunikationVLEO
NORAD 62966·PAYLOAD·🇺🇸 United States

Gestartet Feb 11, 2025 von Vandenberg Space Force Base

Loading…

Nächste Überflüge (nächste 24 Stunden)

TLE

AktuellSource: CelesTrak SupGP

Epoche: Sep 15, 2026, 02:21 UTC

1 62966C 25029U   26258.09840278 -.00025466  00000+0 -75248-3 0  2589
2 62966  53.1575  70.8830 0001190  86.6746 225.7908 15.34400417    14

Verfolge STARLINK-32888 in Echtzeit mit AllMySat

Download on the App Store